This demonstration page uses our WeatherBlox Daily Observations layout. Learn more.

Left ArrowRight Arrow

Hourly Observations for October 23, 2021

Temp ( °F °C ) Dew Point ( °F °C ) Humidity (%) Winds ( mph kmh ) Pressure ( in mb ) Visibility ( mi km ) Precip ( " mm )
12:04 am 00:04 Cloudy with Light Rain 52 11.1 50 10 93 93 VRB 3 6 30.03 1017 6 10 0.00 0.00
12:29 am 00:29 Cloudy with Mist and Fog 52 11.1 50 10 93 93 VRB 3 6 30.02 1016 6 10 0.00 0.00
12:36 am 00:36 Cloudy 52 11.1 50 10 93 93 VRB 3 6 30.02 1016 8 13 0.00 0.00
12:49 am 00:49 Cloudy 52 11 50 10 94 94 N N/A 30.02 1016 9 14 0.00 0.00
12:53 am 00:53 Cloudy 52 11.1 50 10 93 93 WSW 3 6 30.01 1016 10 16 0.00 0.00
1:29 am 01:29 Cloudy 52 11.1 50 10 93 93 N N/A 30.01 1016 10 16 N/A
1:53 am 01:53 Cloudy 52 11.1 50 10 93 93 N N/A 30.00 1016 10 16 N/A
2:32 am 02:32 Cloudy 51 10.6 50 10 96 96 VRB 3 6 30.02 1016 10 16 N/A
2:46 am 02:46 Cloudy 52 11.1 50 10 93 93 N N/A 30.02 1016 10 16 N/A
2:53 am 02:53 Cloudy 52 11.1 50 10 93 93 N N/A 30.01 1016 10 16 N/A
3:27 am 03:27 Cloudy 52 11.1 50 10 93 93 VRB 5 7 30.03 1017 10 16 N/A
3:48 am 03:48 Cloudy 52 11 50 10 94 94 WSW 3 6 30.03 1017 10 16 N/A
3:53 am 03:53 Cloudy 51 10.6 50 10 96 96 W 3 6 30.03 1017 10 16 N/A
4:53 am 04:53 Mostly Cloudy 50 10 48 8.9 93 93 W 5 7 30.03 1017 10 16 N/A
5:53 am 05:53 Cloudy 49 9.4 48 8.9 97 97 N N/A 30.04 1017 10 16 N/A
6:27 am 06:27 Cloudy 49 9.4 48 8.9 97 97 VRB 3 6 30.06 1018 9 14 N/A
6:53 am 06:53 Mostly Cloudy 49 9.4 48 8.9 97 97 N N/A 30.05 1018 9 14 N/A
7:31 am 07:31 Partly Cloudy with Mist and Fog 46 7.8 45 7.2 96 96 N N/A 30.06 1018 5 8 N/A
7:36 am 07:36 Partly Cloudy with Mist and Fog 45 7.2 45 7.2 100 100 N N/A 30.07 1018 2 2 N/A
7:46 am 07:46 Mostly Cloudy with Mist and Fog 45 7.2 44 6.7 97 97 N N/A 30.08 1018 1 1 N/A
7:51 am 07:51 Partly Cloudy with Mist and Fog 45 7 45 7 100 100 N N/A 30.08 1018 1 2 N/A
7:53 am 07:53 Partly Cloudy with Mist and Fog 45 7.2 44 6.7 97 97 N N/A 30.06 1018 2 3 N/A
7:55 am 07:55 Mostly Cloudy with Mist and Fog 45 7.2 44 6.7 97 97 N N/A 30.08 1018 3 4 N/A
8:02 am 08:02 Mostly Cloudy with Mist and Fog 45 7.2 45 7.2 100 100 N N/A 30.08 1018 3 5 N/A
8:11 am 08:11 Mostly Cloudy with Mist and Fog 46 7.8 45 7.2 96 96 N N/A 30.07 1018 4 6 N/A
8:44 am 08:44 Cloudy with Mist and Fog 48 8.9 47 8.3 96 96 N N/A 30.08 1019 6 10 N/A
8:53 am 08:53 Cloudy 48 8.9 47 8.3 96 96 N N/A 30.08 1019 8 13 N/A
9:25 am 09:25 Mostly Cloudy 49 9.4 47 8.3 93 93 N N/A 30.10 1019 8 13 N/A
9:53 am 09:53 Sunny 51 10.6 47 8.3 86 86 VRB 5 7 30.10 1019 10 16 N/A
10:53 am 10:53 Mostly Cloudy 54 12.2 47 8.3 77 77 VRB 6 9 30.10 1019 10 16 N/A
11:00 am 11:00 Mostly Cloudy 53 11.7 46 7.8 77 77 W 6 9 30.10 1019 10 16 N/A
11:08 am 11:08 Mostly Cloudy 53 11.7 46 7.8 77 77 W 5 7 30.10 1019 10 16 N/A
11:36 am 11:36 Mostly Cloudy 55 12.8 46 7.8 72 72 VRB 5 7 30.10 1019 10 16 N/A
11:53 am 11:53 Mostly Sunny 56 13.3 46 7.8 70 70 WSW 6 9 30.10 1019 10 16 N/A
12:53 pm 12:53 Partly Cloudy 58 14.4 46 7.8 65 65 VRB 6 9 30.07 1018 10 16 N/A
1:53 pm 13:53 Mostly Cloudy 58 14.4 43 6.1 58 58 WNW 3 6 30.05 1018 10 16 N/A
2:53 pm 14:53 Cloudy 59 15 43 6.1 56 56 N N/A 30.04 1017 10 16 N/A
3:53 pm 15:53 Cloudy 57 13.9 43 6.1 60 60 VRB 3 6 30.04 1017 10 16 N/A
4:53 pm 16:53 Cloudy 55 12.8 49 9.4 80 80 N N/A 30.03 1017 10 16 0.00 0.00
5:53 pm 17:53 Cloudy 55 12.8 50 10 83 83 N N/A 30.03 1017 10 16 0.00 0.00
6:53 pm 18:53 Cloudy 54 12.2 49 9.4 83 83 N N/A 30.03 1017 10 16 N/A
7:53 pm 19:53 Cloudy 54 12.2 48 8.9 80 80 N N/A 30.04 1017 10 16 N/A
8:53 pm 20:53 Cloudy 54 12.2 48 8.9 80 80 N N/A 30.03 1017 10 16 N/A
9:53 pm 21:53 Cloudy 53 11.7 49 9.4 86 86 N N/A 30.04 1017 10 16 N/A
10:51 pm 22:51 Cloudy 54 12 48 9 82 82 N N/A 30.04 1017 10 16 N/A
10:53 pm 22:53 Cloudy 53 11.7 49 9.4 86 86 N N/A 30.04 1017 10 16 N/A
11:53 pm 23:53 Cloudy 54 12.2 47 8.3 77 77 E 3 6 30.04 1017 10 16 N/A

Powered by AerisWeather